Overview Statistics Trail Chart Weather Telemetry Raw packets
 

This is the latest recevied weather packets stored in our database for station/object HP1MRA-15. If no packets are shown the sender has not sent any weather packets the latest 10 day(s).

<< 31 32 33 34 35 36 37 >>
Time Temp. Humidity Pressure Rain* Wind** Luminosity Snow
1788469759 31.67° C 59% 1000.3 hPa 0 mm - - -
1788469757 31.67° C 59% 1000.3 hPa 0 mm - - -
1788469460 32.22° C 60% 1000.2 hPa 0 mm - - -
1788469159 33.33° C 57% 1000.1 hPa 0 mm - - -
1788468859 34.44° C 56% 1000 hPa 0 mm - - -
1788468858 34.44° C 56% 1000 hPa 0 mm - - -
1788468559 35.56° C 56% 999.9 hPa 0 mm - - -
1788468259 37.22° C 55% 999.8 hPa 0 mm - - -
1788467956 37.22° C 55% 999.6 hPa 0 mm - - -
1788467659 37.78° C 54% 999.8 hPa 0 mm - - -
1788467359 38.33° C 54% 999.8 hPa 0 mm - - -
1788467074 - - 999.8 hPa 0 mm - - -
1788467073 38.89° C 54% 999.8 hPa 0 mm - - -
1788466759 39.44° C 54% 999.9 hPa 0 mm - - -
1788466459 40° C 54% 999.9 hPa 0 mm - - -
1788466159 40.56° C 55% 999.9 hPa 0 mm - - -
1788466157 40.56° C 54% 999.9 hPa 0 mm - - -
1788465859 40.56° C 55% 999.8 hPa 0 mm - - -
1788465558 40.56° C 56% 999.9 hPa 0 mm - - -
1788465256 40.56° C 56% 999.9 hPa 0 mm - - -
1788464958 40.56° C 56% 1000 hPa 0 mm - - -
1788464659 40.56° C 56% 1000 hPa 0 mm - - -
1788464359 40.56° C 56% 999.8 hPa 0 mm - - -
1788464356 40.56° C 56% 999.9 hPa 0 mm - - -
1788464059 40.56° C 56% 999.9 hPa 0 mm - - -

* Rain latest hour (hover to see other rain measurements)
** Current wind speed in m/s (hover to see current wind gust speed)